Regional Weather Roundup
Issued by NWS

Home | Current Version | Previous Version | Graphics & Text | Print | Product List | Glossary On
Versions: 1 2 3 4 5 6 7 8 9 10 11 12 13 14 15 16 17 18 19 20 21 22 23 24 25 26 27 28 29 30 31 32 33 34 35 36 37 38 39 40 41 42 43 44 45 46 47 48 49 50
000
ASUS45 KTFX 261810
RWRMT
MONTANA REGIONAL WEATHER ROUNDUP
NATIONAL WEATHER SERVICE GREAT FALLS MT
1200 PM MDT WED JUL 26 2017

NOTE: "FAIR" INDICATES FEW OR NO CLOUDS BELOW 12000 FEET WITH NO
SIGNIFICANT WEATHER AND/OR OBSTRUCTIONS TO VISIBILITY.

MTZ001>007-043-261900-
WEST OF THE DIVIDE

CITY           SKY/WX    TMP DP  RH WIND       PRES   REMARKS
KALISPELL      SUNNY     78  42  27 CALM      30.08F
MISSOULA       SUNNY     78  37  22 CALM      30.10F HAZE
BUTTE          CLOUDY    79  38  22 VRB3      30.22F
MULLAN PASS    SUNNY     72  34  24 N5        30.26S
ANACONDA         N/A     82  45  26 CALM      30.17F
DEER LODGE       N/A     79  43  27 NE6       30.18F
EUREKA           N/A     77  37  24 MISG      30.08F
HAMILTON         N/A     75  45  33 NE3       30.11F
LIBBY            N/A     79  37  22 CALM      30.05F
PLAINS           N/A     81  44  26 CALM      30.06F
$$

MTZ008-052>055-261900-
SOUTHWEST MONTANA

CITY           SKY/WX    TMP DP  RH WIND       PRES   REMARKS
BOZEMAN        CLOUDY    80  50  34 E5        30.16F
DILLON         MOSUNNY   67  55  65 S5        30.22F
W YELLOWSTONE  CLOUDY    72  46  40 VRB6      30.33F
ENNIS          SUNNY     75  48  38 CALM      30.26S
THREE FORKS      N/A     80  49  33 NE6       30.14F
TWIN BRIDGES     N/A     73  47  39 CALM      30.18S
$$

MTZ009-010-012-014-046-048-049-054-261900-
EAST SLOPES AND CENTRAL MONTANA

CITY           SKY/WX    TMP DP  RH WIND       PRES   REMARKS
CUT BANK       SUNNY     80  42  25 S12G17    30.11F
GREAT FALLS    SUNNY     81  43  26 VRB6      30.11F
HELENA         SUNNY     81  43  26 VRB5      30.12F
CHOTEAU          N/A     81  43  26 SE8       30.13F
$$

MTZ011-013-016-021-045-047-050-051-261900-
NORTH CENTRAL MONTANA

CITY           SKY/WX    TMP DP  RH WIND       PRES   REMARKS
HAVRE          SUNNY     85  43  22 NE5       30.08F
LEWISTOWN      SUNNY     82  46  28 NE5       30.14F
N BAR RANCH      N/A     79  46  31 S17       30.19F
CHINOOK          N/A     82  46  28 E10G16    30.08F
$$

MTZ017>020-022>027-061-062-261900-
NORTHEAST MONTANA

CITY           SKY/WX    TMP DP  RH WIND       PRES   REMARKS
GLASGOW        SUNNY     84  44  24 SE14      30.11S
JORDAN           N/A     87  42  20 E7        30.09F
SIDNEY         SUNNY     85  52  32 VRB7      30.12F
WOLF POINT     SUNNY     87  48  25 NE12      30.11F
MALTA          SUNNY     84  45  24 VRB7G16   30.10S
PLENTYWOOD       N/A     81  48  32 CALM      30.15F
POPLAR           N/A     84  48  28 E8        30.12F
SCOBEY           N/A     83  47  28 E1        30.13F
$$

MTZ028>42-056>058-261900-
SOUTHCENTRAL AND SOUTHEAST MONTANA

CITY           SKY/WX    TMP DP  RH WIND       PRES   REMARKS
BAKER          SUNNY     86  45  23 MISG      30.15F
BILLINGS       PTSUNNY   77  49  37 CALM      30.16F
LIVINGSTON     SUNNY     79  49  34 E8        30.18F
MILES CITY     SUNNY     86  50  28 VRB3      30.11F
BIG TIMBER       N/A     77  48  36 VRB6      30.21F
EKALAKA          N/A     85  46  25 E2        30.15S
FORSYTH          N/A     84  54  34 N6        30.10F
LAUREL           N/A     79  49  34 NE5       30.13F
$$

REGIONAL REPORTS...DAKOTAS

CITY           SKY/WX    TMP DP  RH WIND       PRES   REMARKS
WILLISTON      SUNNY     86  49  27 CALM      30.14F
MINOT          SUNNY     81  54  39 N7        30.14F
DICKINSON      SUNNY     83  51  33 VRB5      30.14S
BEACH          DRIZZLE   86  43  22 E7        30.17F
CROSBY           N/A     81  50  34 VRB5      30.16F
TIOGA            N/A     79  48  34 VRB7G15   30.18S
WATFORD CITY     N/A     84  50  30 VRB6G13   30.13F
BISMARCK       SUNNY     85  56  37 NE7       30.13S
GRAND FORKS    PTSUNNY   78  62  57 N13       30.06S
FARGO          SUNNY     80  61  52 N13       30.06S
BUFFALO SD       N/A     86  51  29 SW6       30.11S
RAPID CITY     CLOUDY    77  49  37 NE8       30.20S
$$

REGIONAL REPORTS...WYOMING/IDAHO/WASHINGTON

CITY           SKY/WX    TMP DP  RH WIND       PRES   REMARKS
GILLETTE       CLOUDY    78  54  43 CALM      30.22F
SHERIDAN       MOSUNNY   83  54  36 SE13      30.17F
BUFFALO WY     CLOUDY    78  53  41 SE14      30.25F
CODY           SUNNY     76  49  38 S6        30.24F
YELLOWSTONE LA   N/A     62  49  62 SE3       30.43S
IDAHO FALLS    LGT RAIN  63  60  90 S5        30.27S
BOISE          MOSUNNY   86  54  33 E9        30.11S
SPOKANE        MOSUNNY   81  43  26 CALM      30.05F
$$

REGIONAL REPORTS...ALBERTA

CITY           SKY/WX    TMP DP  RH WIND       PRES   REMARKS
EDMONTON       SUNNY     75  55  50 S9        30.03F
CALGARY        MOSUNNY   77  45  31 S13       30.08F
LETHBRIDGE     SUNNY     79  48  34 SE7       30.07F
MEDICINE HAT   MOSUNNY   86  43  22 E6        30.05F
WATERTON GATE    N/A     79  45  29 E6          N/A
MILK RIVER       N/A     82  43  24 S14         N/A
$$

REGIONAL REPORTS...SASKATCHEWAN

CITY           SKY/WX    TMP DP  RH WIND       PRES   REMARKS
SWIFT CURRENT  SUNNY     79  45  29 S9        30.13F
REGINA         PTSUNNY   75  52  43 N5        30.14F
SASKATOON      MOSUNNY   75  55  50 VRB3      30.13F
VAL MARIE        N/A     82  39  21 SE7         N/A
ROCKGLEN         N/A     79  41  25 S5          N/A
$$



USA.gov is the U.S. government's official web portal to all federal, state and local government web resources and services.